Home   Weather   Fairfield   Past weeks
Flag for USA

Past Weather in Fairfield, Georgia, USA — Yesterday and Last 2 Weeks

Now
64 °F

Sunny.


Feels Like: 64 °F
Forecast: 66 / 43 °F
Wind: 7 mph from South

Location: Hunter U. S. Army Airfield

Current Time: Dec 5, 2019 at 5:12:15 pm

Latest Report: Dec 5, 2019 at 3:56 pm


Visibility: 10 mi

Pressure: 30.10 "Hg

Humidity: 41%

Dew Point: 40 °F

Location of FairfieldLocation

Past Weather in Fairfield — Graph

°F

Fairfield Temperature Yesterday

Maximum temperature yesterday: 64 °F (at 1:56 pm)
Minimum temperature yesterday: 37 °F (at 6:56 am)
Average temperature yesterday: 49 °F

High & Low Weather Summary for the Past Weeks

 TemperatureHumidityPressure
High78 °F (Nov 27, 1:56 pm)94% (Nov 23, 1:41 am)30.30 "Hg (Nov 23, 1:41 am)
Low32 °F (Dec 3, 6:56 am)23% (Dec 5, 2:56 pm)29.67 "Hg (Dec 1, 4:56 pm)
Average55 °F70%29.98 "Hg
* Reported Nov 20 3:56 pm — Dec 5 3:56 pm, Fairfield. Weather by CustomWeather, © 2019

Note: Actual official high and low records may vary slightly from our data, if they occured in-between our weather recording intervals... More about our weather records

Fairfield Weather History for the Previous 24 Hours

Scroll right to see more
 ConditionsComfort  
Time TempWeatherWind HumidityBarometerVisibility
3:56 pm
Thu, Dec 5
64 °FSunny.7 mph41%30.10 "Hg10 mi
2:56 pm68 °FSunny.No wind23%30.08 "Hg10 mi
1:56 pm67 °FSunny.No wind25%30.08 "Hg10 mi
12:56 pm65 °FSunny.6 mph27%30.08 "Hg10 mi
11:56 am64 °FSunny.9 mph29%30.11 "Hg10 mi
10:56 am60 °FSunny.6 mph34%30.11 "Hg10 mi
9:56 am56 °FSunny.7 mph41%30.10 "Hg10 mi
8:56 am51 °FSunny.8 mph52%30.07 "Hg10 mi
7:56 am47 °FSunny.9 mph61%30.05 "Hg10 mi
6:56 am46 °FClear.10 mph62%30.01 "Hg10 mi
5:56 am48 °FClear.14 mph57%30.00 "Hg10 mi
4:56 am48 °FClear.10 mph57%29.96 "Hg10 mi
3:56 am48 °FClear.10 mph59%29.96 "Hg10 mi
2:56 am47 °FClear.9 mph61%29.95 "Hg10 mi
1:56 am46 °FClear.9 mph70%29.94 "Hg10 mi
12:56 am42 °FClear.8 mph73%29.94 "Hg10 mi
11:56 pm
Wed, Dec 4
44 °FClear.7 mph70%29.93 "Hg10 mi
10:56 pm48 °FClear.6 mph62%29.92 "Hg10 mi
9:56 pm49 °FClear.8 mph59%29.92 "Hg10 mi
8:56 pm48 °FClear.7 mph62%29.90 "Hg10 mi
7:56 pm49 °FClear.9 mph59%29.90 "Hg10 mi
6:56 pm49 °FClear.7 mph60%29.88 "Hg10 mi
5:56 pm53 °FClear.5 mph51%29.86 "Hg10 mi
Weather by CustomWeather, © 2019

See weather overview

Advertising